Flag for Finland Weather past 2 weeks in Rovaniemi, Finland

Now
30 °F

Light snow. Overcast.


Feels Like: 17 °F
Forecast: 30 / 33 °F
Wind: 21 mph from South

Location: Rovaniemi Airport

Current Time: Feb 27, 2015 at 7:09:24 AM

Latest Report: Feb 27, 2015 at 6:50 AM


Visibility: 5 mi

Pressure: 29.92 "Hg

Humidity: 93%

Dew point: 28 °F

Location of RovaniemiLocation

Historic Weather in Rovaniemi — Graph

°F

Rovaniemi temperature yesterday

Maximum temperature yesterday: 32 °F (at 12:20 AM)
Minimum temperature yesterday: 32 °F (at 12:20 AM)
Average temperature yesterday: 32 °F

Past Weeks' High & Low Weather Summary

 TemperatureHumidityPressure
High36 °F (Feb 12, 5:20 AM)100% (Feb 14, 4:20 AM)30.57 "Hg (Feb 14, 4:20 AM)
Low-2 °F (Feb 15, 6:20 AM)49% (Feb 13, 5:50 PM)29.00 "Hg (Feb 20, 4:20 PM)
Average25 °F91%29.62 "Hg
* Reported Feb 12 5:20 AM — Feb 27 5:20 AM, Rovaniemi, Weather by CustomWeather, © 2015

Note: Actual official high and low records may vary slightly from our data, if they occured in-between our weather recording intervals... More about our weather records

Advertising

Rovaniemi weather history for previous 24 hours

 ConditionsComfort  
Time TempWeatherWind HumidityBarometerVisibility
5:20 AM
Fri, Feb 27
32 °FMostly cloudy.21 mph87%29.92 "HgN/A
4:50 AM32 °FSnow flurries. Overcast.22 mph87%29.92 "Hg4 mi
4:20 AM32 °FSnow flurries. Mostly cloudy.21 mph93%29.92 "HgN/A
3:50 AM32 °FMostly cloudy.22 mph93%29.92 "HgN/A
3:20 AM32 °FMostly cloudy.22 mph93%29.92 "HgN/A
2:50 AM32 °FSnow flurries. Mostly cloudy.20 mph100%29.92 "HgN/A
2:20 AM32 °FLight snow. Mostly cloudy.20 mph100%29.95 "Hg3 mi
1:50 AM32 °FSnow flurries. Mostly cloudy.18 mph100%29.95 "Hg3 mi
1:20 AM32 °FPartly cloudy.18 mph100%29.95 "HgN/A
12:50 AM32 °FLight snow. Overcast.16 mph100%29.95 "Hg6 mi
12:20 AM32 °FLight snow. Mostly cloudy.16 mph100%29.95 "Hg3 mi
11:50 PM
Thu, Feb 26
32 °FLight snow. Overcast.14 mph100%29.95 "Hg2 mi
11:20 PM32 °FLight snow. Overcast.15 mph100%29.95 "Hg2 mi
10:50 PM32 °FLight snow. Partly cloudy.13 mph100%29.95 "Hg2 mi
10:20 PM32 °FLight snow. Partly cloudy.14 mph100%29.95 "Hg1 mi
9:50 PM32 °FLight snow. Overcast.13 mph100%29.95 "Hg2 mi
9:20 PM32 °FLight snow. Overcast.13 mph100%29.95 "Hg5 mi
8:50 PM32 °FLight snow. Mostly cloudy.16 mph100%29.95 "Hg4 mi
8:20 PM32 °FLight snow. Mostly cloudy.15 mph100%29.95 "Hg2 mi
7:50 PM32 °FIce fog.13 mph100%29.95 "Hg2 mi
7:20 PM32 °FIce fog.10 mph100%29.95 "Hg2 mi
6:50 PM32 °FLight snow. Overcast.13 mph100%29.95 "Hg2 mi
6:20 PM32 °FIce fog.8 mph100%29.95 "Hg2 mi
5:50 PM32 °FLight snow. Mostly cloudy.9 mph100%29.95 "Hg1 mi
5:20 PM32 °FLight snow. Overcast.12 mph100%29.95 "Hg1 mi
4:50 PM32 °FPartly sunny.10 mph100%29.95 "Hg4 mi
4:20 PM32 °FFog.13 mph100%29.95 "Hg0 mi
3:50 PM32 °FFog.14 mph100%29.95 "Hg1 mi
3:20 PM32 °FFog.12 mph100%29.95 "Hg1 mi
2:50 PM32 °FDrizzle. Ice fog.12 mph100%29.92 "Hg1 mi
2:20 PM32 °FBroken clouds.16 mph100%29.92 "Hg5 mi
1:50 PM32 °FDrizzle. Fog.13 mph100%29.92 "Hg1 mi
1:20 PM32 °FSnow flurries. Partly sunny.12 mph100%29.92 "Hg2 mi
12:50 PM32 °FLight rain. Broken clouds.12 mph100%29.92 "Hg5 mi
12:20 PM32 °FDrizzle. Partly sunny.15 mph100%29.92 "Hg4 mi
11:50 AM32 °FSprinkles. Partly sunny.14 mph100%29.92 "Hg2 mi
11:20 AM32 °FDrizzle. Ice fog.16 mph100%29.92 "Hg1 mi
10:50 AM32 °FDrizzle. Fog.14 mph100%29.92 "Hg0 mi
10:20 AM32 °FDrizzle. Fog.15 mph100%29.89 "Hg1 mi
9:50 AM32 °FDrizzle. Ice fog.15 mph100%29.89 "Hg1 mi
9:20 AM32 °FDrizzle. Fog.15 mph100%29.89 "Hg0 mi
8:50 AM32 °FLight rain. Fog.14 mph100%29.89 "Hg1 mi
7:50 AM32 °FSleet. Partly sunny.9 mph100%29.86 "Hg2 mi
7:10 AM32 °FPassing clouds.9 mph100%29.86 "Hg2 mi
Weather by CustomWeather, © 2015

See weather overviewHow to use our weather pages